POPACS 1

Last updated on Wed Nov 05 2025 00:03:47 GMT+0000 (Coordinated Universal Time)

1 39268U 13055D 25307.62155361 .00148187 52718-5 72781-3 0 9993 2 39268 80.9595 262.4212 0155994 186.2605 173.6709 15.66315195637423
UTC large
Height (km)
Speed (km/s)
/
Latitude / Longitude
Inclination (degrees)
Orbital Period (minutes)
Azimuth
Elevation
Range (km)
Doppler Factor

Next 0 passes for location: London (51.5072 / 0.1276)

Sorry there are no passes over London.